FW6327 Weather Reports


Display with metric or nautical units.
time (UTC)temp
F
wind
direction
speed
MPH
gust
MPH
rain 1hr
in
rain 24hr
in
rain mn
in
humidity
%
barometer
mb
20260504003049 40 16 6.0 20.0 0.07 0.41 0.41 88 984.4
20260504001558 40 27 14.0 26.0 0.08 0.41 0.41 88 985.1
20260504000047 40 30 13.0 28.0 0.09 0.40 0.40 88 986.0
20260503234538 40 109 6.0 25.0 0.06 0.37 0.37 88 986.8
20260503233034 40 42 17.0 31.0 0.04 0.34 0.34 88 987.7
20260503231536 39 360 10.0 26.0 0.07 0.33 0.33 88 988.4
20260503230028 39 5 11.0 30.0 0.09 0.31 0.31 88 989.2
20260503224528 39 29 12.0 25.0 0.09 0.31 0.31 88 990.8
20260503223019 39 332 7.0 16.0 0.11 0.30 0.30 89 991.8
20260503221516 38 350 3.0 12.0 0.11 0.26 0.26 89 992.5
20260503220017 38 325 3.0 9.0 0.11 0.23 0.23 88 992.7
20260503214521 37 343 5.0 14.0 0.09 0.21 0.21 88 992.9
20260503213005 37 360 3.0 18.0 0.08 0.19 0.19 88 993.6
20260503211502 38 355 8.0 23.0 0.05 0.14 0.14 88 994.1
20260503210058 40 84 16.0 28.0 0.04 0.12 0.12 86 994.8
20260503204606 42 49 5.0 17.0 0.07 0.12 0.12 87 995.0
20260503203058 41 28 4.0 10.0 0.07 0.11 0.11 87 995.8
20260503201544 41 341 7.0 15.0 0.07 0.09 0.09 87 996.4
20260503200045 41 30 3.0 11.0 0.08 0.08 0.08 87 997.6
20260503194536 41 347 6.0 15.0 0.05 0.05 0.05 86 998.0
20260503193033 41 13 6.0 11.0 0.04 0.04 0.04 85 999.4
20260503191529 42 32 3.0 10.0 0.02 0.02 0.02 81 1000.7
20260503190020 43 38 7.0 19.0 0.00 0.00 0.00 75 1001.8
20260503184521 44 71 4.0 17.0 0.00 0.00 0.00 71 1002.1
20260503183013 47 36 5.0 13.0 0.00 0.00 0.00 64 1002.7
20260503181508 48 17 3.0 10.0 0.00 0.00 0.00 59 1003.7
20260503180006 49 90 3.0 6.0 0.00 0.00 0.00 54 1004.1
20260503174504 49 54 3.0 11.0 0.00 0.00 0.00 52 1003.9
20260503173002 49 36 4.0 10.0 0.00 0.00 0.00 51 1005.0
20260503171559 49 18 3.0 14.0 0.00 0.00 0.00 51 1005.2
20260503171502 49 37 5.0 16.0 0.00 0.00 0.00 51 1005.4
20260503140110 51 5 10.0 16.0 0.00 0.00 0.00 54 1009.9
20260503130108 50 44 3.0 5.0 0.00 0.00 0.00 64 1010.0
20260503100113 32 267 0.0 0.0 0.00 0.00 0.00 93 1013.3
20260503081550 28 267 0.0 0.0 0.00 0.01 0.00 92 1014.1
20260503071536 28 267 0.0 1.0 0.00 0.04 0.00 92 1014.5
20260503054521 29 267 0.0 1.0 0.00 0.13 0.00 92 1014.7
20260503053018 29 267 0.0 2.0 0.00 0.13 0.00 92 1014.7
20260503051508 29 267 0.0 1.0 0.00 0.13 0.00 92 1014.9
20260503050003 29 267 0.0 1.0 0.00 0.13 0.00 92 1014.7
20260503044600 29 267 0.0 1.0 0.00 0.17 0.00 91 1014.9
20260503043101 29 267 0.0 1.0 0.00 0.17 0.00 92 1015.0
20260503041555 29 267 0.0 2.0 0.00 0.17 0.00 92 1015.1
20260503040051 29 267 0.0 2.0 0.00 0.17 0.00 91 1015.1
20260503034550 29 267 0.0 2.0 0.00 0.19 0.00 91 1015.3
20260503033046 29 267 0.0 2.0 0.00 0.19 0.00 91 1015.2
20260503031554 30 267 0.0 0.0 0.00 0.19 0.00 91 1015.3
20260503030039 30 267 0.0 0.0 0.00 0.19 0.00 91 1015.3
20260503024536 31 267 1.0 2.0 0.00 0.22 0.19 91 1015.4
20260503023037 31 267 2.0 3.0 0.00 0.22 0.19 91 1015.3
20260503021530 31 265 0.0 0.0 0.00 0.22 0.19 91 1015.1
20260503020028 31 265 0.0 2.0 0.00 0.22 0.19 91 1014.7
20260503014524 31 265 0.0 2.0 0.00 0.25 0.19 90 1014.6
20260503013031 32 265 0.0 2.0 0.00 0.25 0.19 90 1014.7
20260503011517 32 265 0.0 2.0 0.00 0.25 0.19 90 1014.8
20260503010013 33 265 0.0 1.0 0.00 0.25 0.19 90 1014.7
20260503004510 33 265 0.0 2.0 0.00 0.28 0.19 90 1014.9